Lid_Strength_Index
1 1 2 2 3 3 3 3 3 3 3 3 3 4 4 4 4 6 8 8 9 12 12 9 9 11 12 12 14 13 13 13 14 16 16 17 18 17 17 16 16 16 17 18 18 20 20 13 14 15 13 12 10 10
0 1 1 2 2 2 2 2 3 3 3 3 3 3 3 3 4 6 9 7 7 10 12 9 10 9 9 9 11 13 13 14 13 15 16 15 17 17 16 20 15 18 15 17 16 17 14 13 14 12 12 11 10 10
0 0 1 1 2 2 2 1 2 2 3 3 4 4 3 4 5 6 9 9 9 11 11 11 12 10 9 9 8 12 13 11 13 12 14 15 16 15 18 17 17 15 13 16 15 15 14 13 12 11 11 11 11 10
-0 0 0 1 1 1 1 1 1 1 1 1 3 4 4 4 5 6 9 9 10 11 14 13 8 10 9 9 9 9 11 11 11 12 14 16 16 14 17 15 16 15 14 15 15 14 13 12 12 11 11 10 10 10
-0 -0 -0 0 0 1 1 1 1 1 1 1 1 2 2 3 4 6 7 8 9 11 14 13 10 9 9 9 10 10 10 12 13 14 15 16 14 15 16 15 17 14 14 16 16 13 13 13 12 10 11 11 10 11
-0 -0 -0 -0 0 0 0 -0 0 0 1 1 1 1 2 2 5 9 12 8 6 9 13 16 11 10 9 9 10 10 10 12 13 13 15 13 11 14 17 18 14 13 12 12 13 12 12 11 10 10 10 10 9 9
-0 -0 -0 -0 -0 -0 -0 -0 -0 0 0 1 1 1 2 3 5 8 11 8 5 9 13 15 14 10 9 10 12 11 11 13 12 15 15 14 13 12 16 17 12 11 11 11 11 11 12 11 12 10 10 9 8 9
-0 -0 -0 -0 -0 -0 -0 -0 -0 -0 1 1 1 1 2 2 4 8 6 5 8 11 11 14 13 13 10 15 14 14 15 15 13 15 13 14 13 14 19 13 13 12 11 11 11 10 11 10 11 10 10 10 9 10
-0 -0 -0 -0 -0 -0 -0 -0 -0 -0 1 1 1 2 5 6 8 8 2 6 8 10 13 13 15 18 11 11 13 14 14 17 11 13 13 14 15 16 13 12 11 11 11 10 10 10 10 11 10 10 10 9 10 9
-0 -0 1 0 -0 -0 -0 -0 -0 0 1 1 4 7 10 5 1 4 8 11 12 13 12 13 12 12 11 11 12 12 13 15 17 13 12 15 14 11 10 10 10 10 9 9 10 10 10 10 9 9 9 8 7 7
-0 -0 0 1 -0 -1 -1 -1 0 1 2 6 8 8 4 2 7 9 13 13 12 13 12 12 11 12 9 14 12 12 13 13 15 15 15 15 14 11 8 8 8 8 8 8 7 8 8 9 9 9 8 7 6 7
-0 -0 -0 1 -0 -1 -1 -0 0 3 6 6 5 4 5 7 10 12 11 11 12 13 11 12 11 11 10 9 11 9 11 11 15 12 14 16 13 7 7 8 8 8 8 8 8 8 9 8 7 8 8 8 9 8
-1 -0 -0 -0 -0 -1 -0 -0 0 1 3 5 6 8 9 10 16 15 17 13 14 11 11 11 13 10 10 10 10 10 13 16 10 13 15 13 8 8 9 9 9 8 9 8 8 8 8 8 8 9 9 10 11 11
0 0 1 1 0 0 0 1 1 3 6 10 11 17 15 17 13 13 12 15 12 12 11 12 11 12 10 11 12 15 12 10 16 17 15 11 9 9 9 9 9 10 9 9 9 9 9 9 9 9 10 11 12 10
0 0 1 1 1 2 1 1 2 5 7 10 11 15 13 13 10 9 9 10 10 10 13 13 12 11 11 11 12 13 15 18 15 16 13 12 10 10 9 9 10 10 10 10 9 10 9 9 10 10 10 10 11 11
1 2 2 1 1 1 1 2 4 5 5 8 9 13 11 14 14 9 9 12 9 12 11 10 11 13 13 10 12 15 15 17 13 11 11 11 10 9 9 9 10 10 10 10 10 10 10 10 10 10 10 9 9 9
1 5 0 0 1 1 1 5 6 7 8 9 14 11 16 15 15 8 8 10 8 10 14 11 13 12 10 12 12 11 14 12 10 12 13 10 8 8 9 9 10 9 9 9 10 10 10 10 9 9 10 10 9 10
5 4 -0 0 2 4 5 6 8 8 9 10 14 15 9 14 16 13 9 8 8 10 10 10 10 11 14 13 12 10 9 8 8 9 9 11 8 8 8 9 9 9 9 9 9 9 9 9 9 10 10 10 11 10
4 3 0 0 2 6 8 7 6 10 11 11 11 10 10 11 9 9 9 8 6 5 7 8 11 12 13 10 12 12 11 8 8 9 8 8 7 8 8 8 8 8 9 9 8 9 9 8 9 11 12 11 12 12
1 1 1 1 3 6 10 9 5 8 10 8 8 9 9 9 9 10 9 7 6 7 8 10 11 11 11 11 9 10 8 7 7 8 9 9 8 7 8 8 8 8 8 8 8 9 8 8 9 9 10 11 14 14
3 2 2 4 5 6 7 8 9 9 8 10 7 9 9 8 9 9 9 5 7 9 11 10 11 12 9 10 9 8 8 8 7 8 8 8 7 7 8 8 8 8 8 9 9 9 9 9 10 9 10 12 11 12
4 2 3 4 7 7 8 8 10 8 8 8 9 9 9 12 12 9 8 8 9 9 9 10 10 9 8 8 8 7 7 7 7 9 10 9 9 9 8 8 9 12 9 8 8 9 9 9 9 9 10 11 11 12
3 3 5 6 9 10 12 8 9 8 10 11 9 10 11 12 10 7 10 9 10 9 9 8 7 6 7 7 6 7 7 7 8 9 9 9 9 11 10 11 11 13 12 10 8 8 9 9 10 10 11 12 12 12
3 6 8 9 10 15 10 13 8 8 8 10 10 12 11 12 7 10 12 10 10 10 9 7 7 8 8 7 8 8 8 8 9 11 10 9 10 10 9 10 8 8 8 8 8 9 10 11 10 11 10 11 14 13
8 10 10 18 11 11 13 13 12 10 14 11 11 14 14 9 14 15 12 11 11 9 8 10 9 9 11 8 8 9 7 7 8 9 10 8 9 10 10 9 9 8 7 7 9 13 12 13 9 9 10 13 13 13
12 11 12 14 15 12 12 16 17 15 13 14 13 11 12 15 16 16 12 12 9 8 10 14 11 8 7 6 7 9 9 8 7 10 9 8 9 9 9 10 10 9 8 8 8 8 8 8 8 9 10 11 12 13
18 17 11 10 11 11 12 11 9 11 15 16 14 16 15 17 19 14 8 7 7 7 7 7 9 9 7 7 7 8 9 9 8 8 6 6 6 7 7 8 9 8 8 8 7 7 7 7 10 10 10 13 12 11
15 15 20 15 14 11 13 12 12 13 12 10 10 15 14 15 16 12 9 9 7 6 7 7 8 7 7 8 11 11 11 8 7 7 7 8 9 9 9 9 8 8 8 8 8 8 7 7 7 8 9 13 13 11
22 19 17 22 17 12 11 13 13 11 10 11 15 13 11 11 12 14 12 10 8 7 9 9 9 8 8 8 8 11 13 7 8 10 12 13 11 11 9 8 8 8 8 8 7 7 7 7 7 7 8 8 7 8
24 20 22 24 23 18 12 11 14 11 10 10 9 9 10 13 14 12 12 12 13 12 11 9 9 8 9 9 10 10 10 13 15 15 13 11 10 10 14 14 13 10 7 7 7 6 7 9 10 8 8 8 8 8
22 26 23 20 23 22 19 19 14 13 14 13 10 11 12 13 14 13 14 14 13 13 13 11 10 9 9 11 12 12 12 10 8 9 9 10 12 10 9 8 8 9 8 9 12 11 12 12 13 12 12 12 10 9
32 29 28 27 25 22 23 26 25 23 18 16 11 8 10 12 17 17 14 14 15 16 15 14 12 12 11 10 10 10 10 10 11 11 12 13 11 10 8 8 7 7 8 8 8 9 13 14 13 13 12 11 10 10
32 36 31 27 28 26 25 23 23 23 24 21 16 10 12 14 15 14 13 13 15 16 15 14 13 11 12 12 12 12 12 13 13 13 15 15 14 14 11 10 9 9 8 8 8 9 10 10 11 12 14 15 16 13